Montreal Mirabel, Quebec

8:46 AM EDT on May 24, 2017 (GMT -0400)
Montreal Mirabel

Weather History for CYMX - June, 2013

Change the Weather History Date:

Saturday, June 29, 2013

  Actual Average Record
Temperature  
Mean Temperature 64 °F -  
Max Temperature 71 °F 75 °F 86 °F (2003)
Min Temperature 57 °F 56 °F 46 °F (2007)
Degree Days  
Heating Degree Days 1    
Growing Degree Days 14 (Base 50)    
Moisture  
Dew Point 60 °F    
Average Humidity 90    
Maximum Humidity 100    
Minimum Humidity 73    
Precipitation  
Precipitation 0.00 in - - ()
Sea Level Pressure  
Sea Level Pressure 29.56 in    
Wind  
Wind Speed 4 mph ()    
Max Wind Speed 7 mph    
Max Gust Speed -    
Visibility 6.8 miles    
Events      
Averages and records for this station are not official NWS values.
T = Trace of Precipitation, MM = Missing Value Source: Averaged Metar Reports

Daily Weather History Graph

Daily Weather History Graph

Search for Another Location

Airport or City:

Trip Planner

Search our weather history database for the weather conditions in past years. The results will help you decide how hot, cold, wet, or windy it might be!

Date:

Astronomy

Jun. 29, 2013 Rise Set
Actual Time 5:09 AM EDT 8:49 PM EDT
Civil Twilight 4:31 AM EDT 9:27 PM EDT
Nautical Twilight 3:40 AM EDT 10:18 PM EDT
Astronomical Twilight 2:31 AM EDT 11:26 PM EDT
Moon No Moon Rise 12:42 PM EDT (6/29)
Length of Visible Light 16h 55m
Length of Day
15h 39m
Waning Gibbous, 56% of the Moon is Illuminated
Jun 29
Waning Gibbous
Jun 30
Last Quarter
Jul 8
New
Jul 15
First Quarter
Jul 22
Full

Hourly Weather History & Observations

Time (EDT) Temp. Dew Point Humidity Pressure Visibility Wind Dir Wind Speed Gust Speed Precip Events Conditions
12:00 AM 57.2 °F 57.2 °F 100% 29.51 in 3.0 mi SSE 3.5 mph - N/A   Overcast
1:00 AM 57.2 °F 57.2 °F 100% 29.51 in 5.0 mi SSE 3.5 mph - N/A   Light Drizzle
2:00 AM 57.2 °F 57.2 °F 100% 29.52 in 5.0 mi SSE 4.6 mph - N/A   Overcast
2:21 AM 57.2 °F 57.2 °F 100% 29.52 in 6.0 mi SE 4.6 mph - N/A   Overcast
2:51 AM 57.2 °F 57.2 °F 100% 29.52 in 3.0 mi SSE 5.8 mph - N/A   Light Drizzle
3:00 AM 57.2 °F 57.2 °F 100% 29.52 in 4.0 mi SSE 5.8 mph - N/A   Light Drizzle
4:00 AM 57.2 °F 57.2 °F 100% 29.52 in 10.0 mi South 5.8 mph - N/A   Overcast
4:50 AM 57.2 °F 57.2 °F 100% 29.52 in 10.0 mi South 4.6 mph - N/A   Light Drizzle
5:00 AM 57.2 °F 57.2 °F 100% 29.53 in 15.0 mi SSE 4.6 mph - N/A   Light Drizzle
5:24 AM 57.2 °F 57.2 °F 100% 29.52 in 25.0 mi SSE 3.5 mph - N/A   Overcast
6:00 AM 57.2 °F 57.2 °F 100% 29.54 in 45.0 mi SSE 4.6 mph - N/A   Overcast
7:00 AM 59.0 °F 59.0 °F 100% 29.56 in 25.0 mi South 4.6 mph - N/A   Overcast
8:00 AM 62.6 °F 60.8 °F 94% 29.57 in 25.0 mi South 4.6 mph - N/A   Overcast
9:00 AM 62.6 °F 60.8 °F 94% 29.57 in 45.0 mi SSW 6.9 mph - N/A   Overcast
10:00 AM 66.2 °F 60.8 °F 83% 29.56 in 45.0 mi SSE 4.6 mph - N/A   Mostly Cloudy
11:00 AM 66.2 °F 60.8 °F 83% 29.56 in 40.0 mi Variable 2.3 mph - N/A   Mostly Cloudy
12:00 PM 68.0 °F 62.6 °F 83% 29.57 in 45.0 mi SE 6.9 mph - N/A   Mostly Cloudy
1:00 PM 68.0 °F 60.8 °F 78% 29.57 in 45.0 mi South 6.9 mph - N/A   Overcast
2:00 PM 68.0 °F 62.6 °F 83% 29.56 in 30.0 mi SSW 6.9 mph - N/A   Overcast
3:00 PM 69.8 °F 62.6 °F 78% 29.57 in 45.0 mi South 6.9 mph - N/A   Mostly Cloudy
4:00 PM 69.8 °F 62.6 °F 78% 29.57 in 45.0 mi West 5.8 mph - N/A   Mostly Cloudy
5:00 PM 71.6 °F 62.6 °F 73% 29.58 in 45.0 mi WSW 3.5 mph - N/A   Mostly Cloudy
6:00 PM 69.8 °F 60.8 °F 73% 29.60 in 25.0 mi West 4.6 mph - N/A   Mostly Cloudy
7:00 PM 69.8 °F 62.6 °F 78% 29.60 in 25.0 mi SW 2.3 mph - N/A   Mostly Cloudy
8:00 PM 68.0 °F 60.8 °F 78% 29.62 in 45.0 mi SW 4.6 mph - N/A   Mostly Cloudy
9:00 PM 66.2 °F 60.8 °F 83% 29.64 in 25.0 mi SW 2.3 mph - N/A   Mostly Cloudy
10:00 PM 64.4 °F 59.0 °F 83% 29.65 in 25.0 mi West 2.3 mph - N/A   Scattered Clouds
11:00 PM 62.6 °F 59.0 °F 88% 29.66 in 25.0 mi West 2.3 mph - N/A   Mostly Cloudy